EW8311 Weather Reports


time (UTC)temp
C
wind
direction
speed
KPH
gust
KPH
rain 1hr
cm
rain 24hr
cm
rain mn
cm
humidity
%
barometer
mb
20260831050049 30 330 9.7 22.5 0.00 0.00 0.00 44 1004.0
20260831044550 30 333 11.3 24.1 0.00 0.00 0.00 43 1004.1
20260831043048 30 297 6.4 19.3 0.00 0.00 0.00 42 1004.1
20260831041547 30 315 6.4 25.7 0.00 0.00 0.00 41 1004.0
20260831040047 31 280 9.7 20.9 0.00 0.00 0.00 41 1003.8
20260831034545 31 288 12.9 20.9 0.00 0.00 0.00 39 1003.7
20260831033051 31 318 14.5 24.1 0.00 0.00 0.00 38 1003.3
20260831031544 31 316 12.9 25.7 0.00 0.00 0.00 38 1002.9
20260831030043 33 321 11.3 17.7 0.00 0.00 0.00 36 1002.6
20260831024543 33 328 8.0 11.3 0.00 0.00 0.00 34 1002.3
20260831023043 33 319 6.4 12.9 0.00 0.00 0.00 33 1002.0
20260831021542 33 319 4.8 12.9 0.00 0.00 0.00 33 1001.6
20260831014539 33 316 4.8 8.0 0.00 0.00 0.00 33 1001.5
20260831013039 34 298 4.8 11.3 0.00 0.00 0.00 32 1001.4
20260831011539 34 319 3.2 9.7 0.00 0.00 0.00 31 1001.3
20260831010037 35 312 3.2 8.0 0.00 0.00 0.00 31 1001.2
20260831004545 36 300 3.2 11.3 0.00 0.00 0.00 29 1001.2
20260831003036 37 205 0.0 12.9 0.00 0.00 0.00 29 1001.3
20260831001535 37 265 3.2 12.9 0.00 0.00 0.00 28 1001.4
20260831000035 37 340 6.4 11.3 0.00 0.00 0.00 28 1001.4
20260830234542 37 304 1.6 9.7 0.00 0.00 0.00 29 1001.3
20260830233031 37 317 1.6 8.0 0.00 0.00 0.00 28 1001.4
20260830231529 37 133 1.6 9.7 0.00 0.00 0.00 28 1001.6
20260830230026 36 325 6.4 16.1 0.00 0.00 0.00 29 1002.0
20260830224524 37 330 6.4 11.3 0.00 0.00 0.00 29 1002.2
20260830223021 37 231 4.8 16.1 0.00 0.00 0.00 28 1002.5
20260830221519 37 217 4.8 12.9 0.00 0.00 0.00 28 1002.7
20260830220015 37 221 1.6 9.7 0.00 0.00 0.00 29 1002.9
20260830214512 37 245 4.8 14.5 0.00 0.00 0.00 28 1003.2
20260830213012 37 62 0.0 6.4 0.00 0.00 0.00 27 1003.3
20260830211503 36 218 3.2 14.5 0.00 0.00 0.00 29 1003.6
20260830210003 36 328 4.8 16.1 0.00 0.00 0.00 30 1003.9
20260830204610 37 308 4.8 9.7 0.00 0.00 0.00 30 1004.2
20260830203108 36 316 4.8 8.0 0.00 0.00 0.00 31 1004.6
20260830201602 36 118 6.4 11.3 0.00 0.00 0.00 30 1004.7
20260830200056 35 311 3.2 9.7 0.00 0.00 0.00 33 1005.0
20260830194554 36 156 3.2 12.9 0.00 0.00 0.00 31 1005.1
20260830193052 35 205 3.2 9.7 0.00 0.00 0.00 32 1005.4
20260830191554 35 4 3.2 9.7 0.00 0.00 0.00 33 1005.8
20260830190049 35 276 1.6 8.0 0.00 0.00 0.00 33 1006.0
20260830184550 34 294 3.2 9.7 0.00 0.00 0.00 35 1006.1
20260830183146 33 316 1.6 8.0 0.00 0.00 0.00 36 1006.3
20260830181544 34 338 0.0 8.0 0.00 0.00 0.00 36 1006.5
20260830180041 33 111 3.2 9.7 0.00 0.00 0.00 37 1006.7
20260830174541 32 233 3.2 8.0 0.00 0.00 0.00 40 1006.7
20260830173037 32 268 1.6 8.0 0.00 0.00 0.00 40 1006.8
20260830171535 32 136 1.6 6.4 0.00 0.00 0.00 41 1006.9
20260830170032 30 303 0.0 3.2 0.00 0.00 0.00 43 1006.9
20260830164538 31 300 0.0 4.8 0.00 0.00 0.00 43 1006.9
20260830163031 30 281 1.6 3.2 0.00 0.00 0.00 45 1007.0
20260830161536 30 303 0.0 1.6 0.00 0.00 0.00 45 1007.1
20260830160030 29 298 0.0 1.6 0.00 0.00 0.00 48 1007.2
20260830154536 29 302 0.0 1.6 0.00 0.00 0.00 48 1007.2
20260830153043 30 301 0.0 1.6 0.00 0.00 0.00 45 1007.1
20260830151525 28 301 0.0 0.0 0.00 0.00 0.00 49 1006.9
20260830150025 27 301 0.0 0.0 0.00 0.00 0.00 55 1007.0
20260830144524 26 301 0.0 0.0 0.00 0.00 0.00 64 1007.0
20260830143028 26 301 0.0 0.0 0.00 0.00 0.00 64 1007.0
20260830141523 25 301 0.0 0.0 0.00 0.00 0.00 60 1007.1
20260830140024 25 301 0.0 0.0 0.00 0.00 0.00 62 1007.3
20260830134530 26 301 0.0 0.0 0.00 0.00 0.00 60 1007.3
20260830133018 26 301 0.0 0.0 0.00 0.00 0.00 59 1007.3
20260830131515 26 301 0.0 1.6 0.00 0.00 0.00 55 1007.2
20260830130014 26 302 0.0 1.6 0.00 0.00 0.00 53 1007.1
20260830124512 27 300 1.6 3.2 0.00 0.00 0.00 51 1007.0
20260830123012 27 338 0.0 6.4 0.00 0.00 0.00 49 1006.7
20260830121514 27 326 4.8 11.3 0.00 0.00 0.00 48 1006.8
20260830120008 27 322 8.0 17.7 0.00 0.00 0.00 49 1006.5
20260830114518 27 116 3.2 9.7 0.00 0.00 0.00 48 1006.1
20260830113007 26 130 0.0 4.8 0.00 0.00 0.00 51 1006.1
20260830111510 27 82 0.0 0.0 0.00 0.00 0.00 49 1006.3
20260830110005 27 110 0.0 0.0 0.00 0.00 0.00 50 1006.3
20260830104503 27 110 0.0 1.6 0.00 0.00 0.00 49 1006.2
20260830103100 27 110 0.0 3.2 0.00 0.00 0.00 50 1005.9
20260830101606 27 93 0.0 3.2 0.00 0.00 0.00 47 1005.5
20260830100055 27 94 3.2 8.0 0.00 0.00 0.00 47 1005.4
20260830094559 28 124 0.0 9.7 0.00 0.00 0.00 47 1005.4
20260830093052 28 107 0.0 3.2 0.00 0.00 0.00 48 1005.1
20260830091551 28 316 0.0 0.0 0.00 0.00 0.00 47 1005.2
20260830090054 28 314 0.0 4.8 0.00 0.00 0.00 47 1005.0
20260830084547 28 305 4.8 12.9 0.00 0.00 0.00 47 1004.8
20260830083054 28 312 6.4 9.7 0.00 0.00 0.00 46 1004.7
20260830081543 28 284 4.8 11.3 0.00 0.00 0.00 45 1004.5
20260830080039 28 315 6.4 14.5 0.00 0.00 0.00 44 1004.3
20260830074545 30 310 3.2 11.3 0.00 0.00 0.00 38 1004.0
20260830073033 30 105 8.0 16.1 0.00 0.00 0.00 38 1003.7
20260830071531 30 110 1.6 14.5 0.00 0.00 0.00 38 1003.8
20260830070031 30 91 8.0 16.1 0.00 0.00 0.00 41 1003.9
20260830064527 29 91 1.6 16.1 0.00 0.00 0.00 43 1004.0
20260830063027 29 89 4.8 11.3 0.00 0.00 0.00 42 1004.2
20260830061526 29 129 3.2 8.0 0.00 0.00 0.00 43 1004.2
20260830060026 29 111 1.6 6.4 0.00 0.00 0.00 43 1004.6
20260830054525 29 102 1.6 6.4 0.00 0.00 0.00 43 1005.0
20260830053025 28 316 0.0 1.6 0.00 0.00 0.00 45 1005.1
20260830051523 29 316 0.0 0.0 0.00 0.00 0.00 43 1005.2